Location: Borgo
(42.3939°N, 9.2791°E)
Time: 01:42:51
(UTC+00:00)

Cosmos 1898 Rocket - Pass Details

Date: 24 January 2021
Orbit: 754 x 783 km, 74.0° (Epoch: 08 March)

Event Time Altitude Azimuth Distance (km) Brightness Sun altitude
Rises 17:30:03 0° 186° (S) 3,237 7.0 -11.8°
Reaches altitude 10° 17:32:27 10° 182° (S) 2,310 6.2 -12.2°
Maximum altitude 17:37:34 55° 105° (ESE) 919 3.6 -13.1°
Drops below altitude 10° 17:42:40 10° 29° (NNE) 2,307 5.6 -14.1°
Enters shadow 17:43:13 - 27° (NNE) 2,514 5.8 -14.2°
